Regional Weather Roundup
Issued by NWS

Home | Current Version | Previous Version | Graphics & Text | Print | Product List | Glossary On
Versions: 1 2 3 4 5 6 7 8 9 10 11 12 13 14 15 16 17 18 19 20 21 22 23 24 25 26 27 28 29 30 31 32 33 34 35 36 37 38 39 40 41 42 43 44 45 46 47 48 49 50
766
ASUS45 KABQ 260101
RWRNM
NEW MEXICO REGIONAL WEATHER ROUNDUP
NATIONAL WEATHER SERVICE ALBUQUERQUE NM
700 PM MDT SAT MAR 25 2017

NOTE: "FAIR" MEANS FEW OR NO CLOUDS BELOW 12,000 FEET AGL WITH NO
       SIGNIFICANT WEATHER OR OBSTRUCTIONS TO VISION.

      THIS PRODUCT IS RELEASED AS TWO VERSIONS.  ONE VERSION NEAR
      THE TOP OF THE HOUR CONTAINING PRELIMINARY DATA FROM ALBUQUERQUE
      AND OTHER STATIONS.  A FINAL VERSION WITH ADDITIONAL DATA IS
      ISSUED ABOUT 10 MINUTES AFTER THE HOUR.

NMZ501-503-504-510>518-260200-
NORTHWEST PLATEAU/NORTHCENTRAL MOUNTAINS

CITY           SKY/WX    TMP DP  RH WIND       PRES   REMARKS
FARMINGTON     CLOUDY    60  18  19 W20G28    29.83R
LOS ALAMOS     FAIR      54  12  19 S3        29.93R
SANTA FE       FAIR      60  16  18 SE3       29.87F
TAOS             N/A     54  23  30 S7        29.91F
ANGEL FIRE     FAIR      43  27  51 CALM      29.97S

$$
NMZ402-403-502-505>509-260200-
WESTCENTRAL MOUNTAINS/SOUTHWEST MOUNTAINS

CITY           SKY/WX    TMP DP  RH WIND       PRES   REMARKS
GALLUP         TSTM      46  34  62 SW31G48   29.95R
GRANTS         CLOUDY    58  18  21 CALM      29.92F
SILVER CITY    FAIR      67  17  14 SW8       29.93F

$$
NMZ407-409-411-412-260200-
SOUTHERN DESERTS

CITY           SKY/WX    TMP DP  RH WIND       PRES   REMARKS
DEMING         FAIR      75  14  10 SW16G25   29.86F
LAS CRUCES     FAIR      75  12   9 SW9       29.87F
HOLLOMAN AFB   FAIR      74  14  10 S12       29.89F
ALAMOGORDO     FAIR      72  18  13 S13       29.88S
T OR C         FAIR      72  10   9 W21G31    29.86R

$$
NMZ519>523-260200-
CENTRAL VALLEYS/CENTRAL HIGHLANDS

CITY           SKY/WX    TMP DP  RH WIND       PRES   REMARKS
ALBUQUERQUE    FAIR      68  17  14 S28G33    29.81F
DOUBLE EAGLE   PTCLDY    66  21  18 SE25G33   29.83F
MORIARTY ARPT  FAIR      64  18  16 S16G23    29.89F
CLINES CORNERS FAIR      57  19  22 S16       29.93F
BELEN          FAIR      68  15  12 S24G33    29.81S
SOCORRO        FAIR      70  16  12 SE15G25   29.82F

$$
NMZ524>526-539-540-260200-
SOUTHCENTRAL MOUNTAINS

CITY           SKY/WX    TMP DP  RH WIND       PRES   REMARKS
RUIDOSO        NOT AVBL

$$
NMZ527>531-260200-
NORTHEAST HIGHLANDS/NORTHEAST PLAINS

CITY           SKY/WX    TMP DP  RH WIND       PRES   REMARKS
LAS VEGAS      FAIR      59   6  12 SW13      29.89F
RATON          FAIR      57  27  31 SE3       29.87F
CLAYTON        FAIR      59  32  36 SE10      29.87F

$$
NMZ532>537-260200-
EASTCENTRAL PLAINS

CITY           SKY/WX    TMP DP  RH WIND       PRES   REMARKS
TUCUMCARI      FAIR      71  21  15 S12       29.80F
CANNON AFB     FAIR      68  24  19 S13       29.86F
CLOVIS AIRPORT FAIR      64  28  25 S12       29.87F

$$
NMZ028-029-538-260200-
SOUTHEAST PLAINS

CITY           SKY/WX    TMP DP  RH WIND       PRES   REMARKS
ROSWELL        FAIR      72  25  17 SE21G31     N/A
ARTESIA        FAIR      72  28  20 SE17      29.83F
CARLSBAD       FAIR      73  26  17 SE14      29.83S
HOBBS          FAIR      68  23  18 SE6       29.89F


$$




USA.gov is the U.S. government's official web portal to all federal, state and local government web resources and services.